Weather History for Montauk, NY

Change the Weather History Date:

Friday, December 6, 2013

  Actual Average (KHTO) Record (KHTO)
Temperature  
Mean Temperature 48 °F -  
Max Temperature 57 °F 46 °F 64 °F (2001)
Min Temperature 39 °F 30 °F 15 °F (1935)
Degree Days  
Heating Degree Days 17    
Moisture  
Dew Point 47 °F    
Average Humidity 92    
Maximum Humidity 100    
Minimum Humidity 82    
Precipitation  
Precipitation 0.33 in - - ()
Sea Level Pressure  
Sea Level Pressure 30.00 in    
Wind  
Wind Speed 9 mph (WNW)    
Max Wind Speed 16 mph    
Max Gust Speed 21 mph    
Averages and records for this station are not official NWS values.
T = Trace of Precipitation, MM = Missing Value Source: NWS Daily Summary

Daily Weather History Graph

Daily Weather History Graph

Search for Another Location

Airport:

Trip Planner

Search our weather history database for the weather conditions in past years. The results will help you decide how hot, cold, wet, or windy it might be!

Date:

Astronomy

Dec. 06, 2013 Rise Set
Actual Time 6:58 AM EST 4:19 PM EST
Civil Twilight 6:27 AM EST 4:49 PM EST
Nautical Twilight 5:53 AM EST 5:24 PM EST
Astronomical Twilight 5:19 AM EST 5:57 PM EST
Moon 10:00 AM EST (12/6) 8:48 PM EST (12/6)
Length of Visible Light 10h 22m
Length of Day
9h 20m
Waxing Crescent, 19% of the Moon is Illuminated
Dec 6
Waxing Crescent
Dec 9
First Quarter
Dec 17
Full
Dec 25
Last Quarter
Jan 1
New

Hourly Weather History & Observations

Time (EST) Temp. Windchill Dew Point Humidity Pressure Visibility Wind Dir Wind Speed Gust Speed Precip Events Conditions
12:54 AM 55.0 °F - 54.0 °F 96% 29.97 in - SSW 10.4 mph 19.6 mph N/A   Unknown
1:54 AM 54.0 °F - 54.0 °F 100% 29.96 in - SSW 8.1 mph - N/A   Unknown
2:54 AM 55.9 °F - 55.0 °F 97% 29.94 in - SSW 6.9 mph - N/A   Unknown
3:54 AM 55.9 °F - 55.0 °F 97% 29.92 in - SSW 10.4 mph 19.6 mph N/A   Unknown
4:54 AM 55.9 °F - 55.0 °F 97% 29.92 in - SSW 8.1 mph 19.6 mph N/A   Unknown
5:54 AM 55.9 °F - 55.0 °F 97% 29.93 in - SSW 10.4 mph 18.4 mph N/A   Unknown
6:54 AM 55.9 °F - 55.0 °F 97% 29.93 in - Variable 5.8 mph - N/A   Unknown
7:54 AM 57.0 °F - 55.9 °F 96% 29.94 in - SW 10.4 mph 17.3 mph N/A   Unknown
8:54 AM 55.9 °F - 54.0 °F 93% 29.96 in - West 13.8 mph 20.7 mph N/A   Unknown
9:54 AM 51.1 °F - 48.9 °F 92% 29.99 in - NNW 10.4 mph - 0.02 in   Unknown
10:54 AM 51.1 °F - 48.0 °F 89% 29.98 in - NW 5.8 mph - N/A   Unknown
11:54 AM 50.0 °F - 46.0 °F 86% 29.99 in - NNW 9.2 mph - N/A   Unknown
12:54 PM 48.9 °F - 45.0 °F 86% 29.99 in - NW 8.1 mph - N/A   Unknown
1:54 PM 48.0 °F - 44.1 °F 86% 30.00 in - NW 9.2 mph - N/A   Unknown
2:54 PM 46.9 °F - 44.1 °F 90% 30.02 in - NW 8.1 mph - 0.01 in   Unknown
3:54 PM 46.9 °F - 44.1 °F 90% 30.03 in - NW 6.9 mph - 0.01 in   Unknown
4:54 PM 46.0 °F 43.1 °F 43.0 °F 89% 30.03 in - NNW 5.8 mph - 0.01 in   Unknown
5:54 PM 46.0 °F 41.9 °F 42.1 °F 86% 30.04 in - NNW 8.1 mph - N/A   Unknown
7:54 PM 43.0 °F 35.4 °F 39.9 °F 89% 30.07 in - NNW 16.1 mph 20.7 mph 0.07 in   Unknown
8:54 PM 42.1 °F 34.9 °F 37.0 °F 82% 30.10 in - NNW 13.8 mph 20.7 mph 0.01 in   Unknown
9:54 PM 41.0 °F 34.7 °F 37.9 °F 89% 30.11 in - North 10.4 mph 20.7 mph 0.06 in   Unknown
10:54 PM 39.9 °F 32.5 °F 37.9 °F 93% 30.09 in - North 12.7 mph 19.6 mph 0.08 in   Unknown
11:54 PM 39.9 °F 32.5 °F 37.0 °F 89% 30.10 in - NNW 12.7 mph 19.6 mph 0.06 in   Unknown